Weather History for KDAG - September, 2013

Change the Weather History Date:

Wednesday, September 25, 2013

  Actual Average Record
Temperature  
Mean Temperature 75 °F -  
Max Temperature 88 °F 90 °F 103 °F (1991)
Min Temperature 62 °F 63 °F 48 °F (1948)
Cooling Degree Days 10    
Growing Degree Days 25 (Base 50)    
Moisture  
Dew Point 35 °F    
Average Humidity 26    
Maximum Humidity 40    
Minimum Humidity 15    
Precipitation  
Precipitation 0.00 in - - ()
Sea Level Pressure  
Sea Level Pressure 29.63 in    
Wind  
Wind Speed 19 mph (West)    
Max Wind Speed 29 mph    
Max Gust Speed 38 mph    
Visibility 10 miles    
Events      
Averages and records for this station are not official NWS values.
T = Trace of Precipitation, MM = Missing Value Source: NWS Daily Summary

Daily Weather History Graph

Daily Weather History Graph

Search for Another Location

Airport or City:

Trip Planner

Search our weather history database for the weather conditions in past years. The results will help you decide how hot, cold, wet, or windy it might be!

Date:

Astronomy

Sep. 25, 2013 Rise Set
Actual Time 6:37 AM PDT 6:39 PM PDT
Civil Twilight 6:12 AM PDT 7:04 PM PDT
Nautical Twilight 5:43 AM PDT 7:33 PM PDT
Astronomical Twilight 5:13 AM PDT 8:03 PM PDT
Moon 11:01 PM PDT (9/25) 12:34 PM PDT (9/25)
Length of Visible Light 12h 51m
Length of Day
12h 01m
Waning Gibbous, 63% of the Moon is Illuminated
Sep 25
Waning Gibbous
Sep 26
Last Quarter
Oct 4
New
Oct 11
First Quarter
Oct 18
Full

Hourly Weather History & Observations

Time (PDT) Temp. Dew Point Humidity Pressure Visibility Wind Dir Wind Speed Gust Speed Precip Events Conditions
12:50 AM 77.0 °F 30.0 °F 18% 29.72 in 10.0 mi SW 16.1 mph - N/A   Clear
1:50 AM 75.9 °F 28.9 °F 18% 29.69 in 10.0 mi SW 12.7 mph - N/A   Clear
2:50 AM 71.1 °F 28.9 °F 21% 29.68 in 10.0 mi West 12.7 mph - N/A   Clear
3:50 AM 72.0 °F 28.9 °F 20% 29.68 in 10.0 mi West 12.7 mph - N/A   Clear
4:50 AM 68.0 °F 28.9 °F 23% 29.68 in 10.0 mi West 12.7 mph - N/A   Clear
5:50 AM 66.9 °F 32.0 °F 27% 29.68 in 10.0 mi WNW 13.8 mph - N/A   Clear
6:50 AM 64.9 °F 39.9 °F 40% 29.70 in 10.0 mi West 20.7 mph 26.5 mph N/A   Clear
7:50 AM 68.0 °F 42.1 °F 39% 29.70 in 10.0 mi West 24.2 mph 29.9 mph N/A   Clear
8:50 AM 69.1 °F 41.0 °F 36% 29.68 in 10.0 mi West 25.3 mph 32.2 mph N/A   Clear
9:50 AM 73.0 °F 39.9 °F 30% 29.68 in 10.0 mi West 25.3 mph 32.2 mph N/A   Clear
10:50 AM 75.9 °F 39.9 °F 27% 29.65 in 10.0 mi WNW 23.0 mph 29.9 mph N/A   Clear
11:50 AM 82.0 °F 39.0 °F 22% 29.63 in 10.0 mi West 21.9 mph 31.1 mph N/A   Clear
12:50 PM 84.9 °F 37.0 °F 18% 29.59 in 10.0 mi West 20.7 mph 31.1 mph N/A   Clear
1:50 PM 87.1 °F 34.0 °F 15% 29.55 in 10.0 mi WSW 24.2 mph 34.5 mph N/A   Clear
2:50 PM 87.1 °F 35.1 °F 16% 29.54 in 10.0 mi West 25.3 mph 34.5 mph N/A   Clear
3:50 PM 84.0 °F 37.9 °F 19% 29.53 in 10.0 mi West 28.8 mph 38.0 mph N/A   Clear
4:50 PM 80.1 °F 37.0 °F 21% 29.53 in 10.0 mi West 25.3 mph 36.8 mph N/A   Clear
5:50 PM 75.9 °F 36.0 °F 23% 29.53 in 10.0 mi West 20.7 mph 33.4 mph N/A   Clear
6:50 PM 72.0 °F 35.1 °F 26% 29.56 in 10.0 mi West 24.2 mph 31.1 mph N/A   Clear
7:50 PM 69.1 °F 33.1 °F 26% 29.58 in 10.0 mi West 24.2 mph 31.1 mph N/A   Clear
8:50 PM 66.0 °F 33.1 °F 29% 29.60 in 10.0 mi WSW 27.6 mph 35.7 mph N/A   Clear
9:50 PM 64.0 °F 35.1 °F 34% 29.61 in 10.0 mi WSW 26.5 mph 33.4 mph N/A   Clear
10:50 PM 63.0 °F 36.0 °F 37% 29.62 in 10.0 mi West 25.3 mph 34.5 mph N/A   Clear
11:50 PM 62.1 °F 36.0 °F 38% 29.63 in 10.0 mi WSW 20.7 mph 31.1 mph N/A   Clear